Location: Blazny
(46.0612°N, 84.4033°W)
Time: 08:51:04
(UTC-04:00)

ARIANE 6 FM1 Upper Stage - Pass Details

Date: 16 September 2024
Orbit: 564 x 594 km, 62.0° (Epoch: 03 October)

Event Time Altitude Azimuth Distance (km) Brightness Sun altitude
Rises 06:14:52 0° 320° (NW) 2,838 6.0 -11.5°
Reaches altitude 10° 06:17:09 10° 324° (NW) 1,936 5.2 -11.2°
Maximum altitude 06:21:30 63° 46° (NE) 670 3.3 -10.4°
Drops below altitude 10° 06:25:50 10° 128° (SE) 1,929 6.0 -9.7°
Sets 06:28:07 0° 131° (SE) 2,827 6.8 -9.3°
